Regional Weather Roundup
Issued by NWS

Home | Current Version | Previous Version | Graphics & Text | Print | Product List | Glossary On
Versions: 1 2 3 4 5 6 7 8 9 10 11 12 13 14 15 16 17 18 19 20 21 22 23 24 25 26 27 28 29 30 31 32 33 34 35 36 37 38 39 40 41 42 43 44 45 46 47 48 49 50
000
ASUS44 KMEG 212110
RWRTN
TENNESSEE HOURLY STATE WEATHER ROUNDUP
NATIONAL WEATHER SERVICE MEMPHIS TN
400 PM CDT SUN SEP 21 2014

TNZ002-004-019-021-049-052-054-088>092-212200-
WEST TENNESSEE

CITY           SKY/WX    TMP DP  RH WIND       PRES   REMARKS
MEMPHIS INTL   PTSUNNY   89  69  51 NW12      29.96F HX  93
NWS MEMPHIS      N/A     87 N/A N/A MISG        N/A
JACKSON        MOSUNNY   85  68  56 NW10      29.96F
DYERSBURG      SUNNY     82  61  47 NW9       29.98S
UNION CITY     SUNNY     81  57  44 NW8       29.97S
PARIS          PTSUNNY   82  64  54 VRB5      29.96S
HUNTINGDON     MOSUNNY   82  62  50 NW14      29.95F
LEXINGTON      MOSUNNY   84  66  54 W10       29.94F
SAVANNAH       PTSUNNY   84  70  61 W10       29.95S
$$

TNZ008-025-027-028-033-062-065-066-212200-
NORTH MIDDLE TENNESSEE

CITY           SKY/WX    TMP DP  RH WIND       PRES   REMARKS
NASHVILLE      MOSUNNY   88  63  43 NW15G22   29.91F
DICKSON        MOSUNNY   81  64  57 NW9       29.94S
PORTLAND       SUNNY     82  63  51 NW10      29.91S
CLARKSVILLE    MOSUNNY   84  57  39 NW15G21   29.93F
LEBANON        MOSUNNY   84  66  54 NW10      29.89F
SMYRNA         MOSUNNY   85  67  54 W10       29.91F
MURFREESBORO   MOSUNNY   80  69  69 W10       29.91
COOKEVILLE     SUNNY     82  72  69 W5        29.91F
LIVINGSTON     PTSUNNY   77  66  68 NW8       29.93F
GALLATIN       MOSUNNY   85  66  52 NW14      29.91F
CROSSVILLE     PTSUNNY   73  68  84 NW5       29.96F
$$

TNZ061-075-076-078-094-096-097-212200-
SOUTH MIDDLE TENNESSEE

CITY           SKY/WX    TMP DP  RH WIND       PRES   REMARKS
LEWISBURG      PTSUNNY   84  69  60 W5        29.93F
FAYETTEVILLE   MOSUNNY   84  64  51 W10       29.93F
TULLAHOMA      SUNNY     82  66  57 W12       29.94F
WINCHESTER     MOSUNNY   84  66  54 W7        29.93F
MCMINNVILLE    PTSUNNY   81  72  74 NW13      29.95R
COLUMBIA       MOSUNNY   84  70  61 VRB5      29.92F
SHELBYVILLE    PTSUNNY   81  73  78 NW13      29.94R
$$

TNZ017-018-042-046-047-212200-
NORTHEAST TENNESSEE

CITY           SKY/WX    TMP DP  RH WIND       PRES   REMARKS
TRI CITIES     LGT RAIN  73  66  78 SW9       29.89F
ELIZABETHTON   LGT RAIN  70  66  88 W7        29.90F
$$

TNZ012-013-036-069-073-074-212200-
CENTRAL EAST TENNESSEE

CITY           SKY/WX    TMP DP  RH WIND       PRES   REMARKS
KNOXVILLE      RAIN      72  69  90 W9        29.92R FOG
OAK RIDGE      CLOUDY    75  70  84 S6        29.93S
GATLINBURG     CLOUDY    75  66  73 SW5       29.90F
MORRISTOWN       N/A     75  66  73 W12       29.92S
$$

TNZ083-085-099-212200-
SOUTHEAST TENNESSEE

CITY           SKY/WX    TMP DP  RH WIND       PRES   REMARKS
CHATTANOOGA    PTSUNNY   87  64  46 SW13      29.91F
$$

SKY/WX REPORTED AS FAIR MEANS FEW OR NO CLOUDS BELOW
12 THOUSAND FEET.




USA.gov is the U.S. government's official web portal to all federal, state and local government web resources and services.